Lid_Strength_Index
2 1 -1 -2 -3 -2 -2 -2 -2 -2 -1 -1 -0 0 0 -0 0 0 0 -1 -1 -1 -2 -1 -1 -1 -1 -1 -1 -1 -1 -1 -1 -1 -1 -1 -1 -1 -1 -1 -2 -1 -1
2 2 -1 -1 -2 -2 -2 -2 -2 -1 -1 -2 -2 -1 0 -0 -0 -0 0 -0 -1 -1 -2 -2 -1 -1 -1 -1 -1 -1 -1 -1 -1 -2 -1 -1 -1 -1 -1 -1 -2 -1 -1
3 2 2 -1 -2 -3 -1 -2 -2 -2 -1 -2 -1 -2 -0 -0 0 0 0 -0 -1 -2 -1 -2 -2 -1 -1 -1 -1 -1 -1 -1 -1 -1 -1 -1 -1 -1 -1 -1 -1 -1 -1
3 2 2 0 -1 -2 -2 -1 -2 -2 -2 -2 -2 -2 -1 -1 -1 -0 -0 0 -1 -1 -2 -1 -2 -1 -1 -1 -1 -1 -1 -1 -1 -1 -1 -1 -1 -1 -1 -1 -1 -0 -1
3 3 2 0 -1 -1 -2 -2 -2 -2 -2 -2 -2 -2 -2 -1 -1 -1 -0 -0 -0 -1 -2 -2 -1 -1 -1 -1 -1 -1 -1 -1 -1 -1 -1 -1 -1 -0 -1 -1 0 0 -1
3 2 1 0 -0 -1 -2 -2 -2 -2 -2 -2 -2 -2 -2 -2 -1 -0 -0 0 -0 -1 -1 -1 -1 -1 -1 -1 -1 -1 -1 -1 -1 -1 -1 0 -0 -1 -0 0 0 -0 -1
3 3 2 1 0 -1 -1 -2 -2 -2 -2 -2 -2 -2 -2 -2 -2 -0 0 0 -0 -0 -1 -1 -1 -1 -1 -1 -1 -1 -1 -1 0 -0 -0 1 0 -0 0 0 -0 -0 -0
4 3 2 2 1 -0 -1 -1 -2 -2 -2 -2 -2 -2 -2 -2 -2 -2 0 0 0 0 0 -1 -1 -1 -1 -1 -1 -1 -0 0 1 1 0 1 -1 -1 -1 -1 0 -0 -0
3 3 3 2 1 0 -1 -1 -1 -2 -2 -2 -2 -1 -1 -1 -1 -1 -0 1 1 1 1 -0 -0 -0 -1 -1 -1 -0 1 1 1 1 2 1 -1 -0 -1 -0 1 0 1
4 4 3 3 2 1 -0 -1 -1 -1 -2 -1 -1 -1 -1 -1 -1 -0 -0 1 1 2 1 0 0 0 0 -1 -0 1 2 2 2 2 2 1 0 0 -1 0 1 1 1
5 4 3 3 2 1 -0 -1 -1 -1 -2 -1 -1 -1 -1 -1 -0 0 1 1 1 2 3 2 2 2 2 3 2 3 3 3 2 3 2 1 1 0 1 1 1 1 1
7 5 4 3 2 2 1 -0 -0 -1 -1 -1 -1 -1 -1 -1 -1 0 1 1 1 1 3 3 3 3 4 4 4 4 4 4 4 4 2 1 1 0 1 2 2 1 2
8 6 5 3 2 2 1 -0 1 -1 -1 -2 0 -0 1 0 -0 0 1 1 1 2 2 4 4 5 5 5 4 4 4 4 4 3 3 2 1 0 1 2 2 1 2
9 8 7 5 3 2 0 1 1 0 0 0 0 1 1 2 1 1 2 2 2 2 2 3 4 5 6 6 5 5 4 4 3 3 4 4 2 1 1 2 1 2 3
10 9 8 6 3 2 1 2 1 1 0 1 1 1 2 2 2 1 2 2 2 2 2 2 3 5 6 7 7 6 6 5 4 4 4 5 3 1 1 2 1 2 2
10 9 8 8 5 2 2 2 2 1 1 1 1 1 2 2 3 3 2 3 3 2 2 3 4 4 7 7 8 8 8 7 7 6 5 5 5 3 2 2 2 2 2
10 9 9 8 7 5 2 2 2 1 1 2 1 2 2 2 3 4 2 2 3 3 2 3 4 4 6 7 9 10 10 9 8 8 8 7 7 6 3 2 2 3 3
10 10 9 8 7 7 5 4 3 3 3 3 2 2 2 3 3 4 4 3 2 3 3 3 4 5 7 8 9 10 11 10 9 10 10 10 9 8 7 4 3 3 3
9 9 8 7 6 6 6 5 5 5 5 4 4 3 3 3 3 4 4 4 3 3 3 3 4 6 7 9 9 10 10 11 10 10 10 11 11 10 9 7 6 5 3
9 9 7 7 6 6 5 4 4 3 4 4 4 3 3 2 3 3 4 4 4 4 3 4 5 6 7 8 9 11 11 11 10 11 10 10 10 11 10 9 8 8 5
9 9 7 7 7 6 6 6 5 4 3 3 3 3 4 3 3 4 4 5 4 4 4 3 6 7 8 8 9 10 11 11 11 11 10 11 11 10 10 10 10 9 8
9 9 8 7 7 6 6 5 4 3 3 3 3 4 4 4 3 4 5 5 5 5 5 4 4 6 7 8 9 9 12 11 11 11 11 11 11 11 11 10 10 9 9
9 9 8 7 7 6 6 5 4 4 4 4 4 5 5 4 4 4 4 4 5 5 5 5 4 5 8 8 7 8 12 12 11 11 11 11 11 11 11 11 11 10 9
9 8 8 7 7 6 6 5 5 6 6 5 5 5 5 4 4 5 4 4 5 5 6 6 5 4 5 8 7 7 7 9 12 13 12 12 11 11 11 11 11 10 10
9 8 8 7 7 7 6 5 5 5 5 5 5 5 5 4 4 4 5 5 4 5 6 7 6 5 5 6 7 8 9 8 9 10 13 13 12 12 11 11 11 11 10
8 8 8 8 8 7 6 6 6 6 6 6 6 5 5 5 4 4 5 6 6 5 6 6 6 6 6 7 6 7 8 9 9 10 11 12 12 12 11 11 11 11 11